This is the latest recevied weather packets stored in our database for station/object IZ0VWB-3. If no packets are shown the sender has not sent any weather packets the latest 1 day(s).
| Time | Temp. | Humidity | Pressure | Rain* | Wind** | Luminosity | Snow |
|---|---|---|---|---|---|---|---|
| 1778005557 | 15° C | 83% | 1001.6 hPa | 0 mm | 0.89 m/s, 109° | - | - |
| 1778004676 | 15° C | 83% | 1001.4 hPa | 0 mm | 0.89 m/s, 115° | - | - |
| 1778004100 | 15° C | 83% | 1001.4 hPa | 0 mm | 0.89 m/s, 120° | - | - |
| 1778003721 | 15° C | 83% | 1001.3 hPa | 0 mm | 0.89 m/s, 132° | - | - |
| 1778003268 | 15° C | 83% | 1001.4 hPa | 0 mm | 1.34 m/s, 115° | - | - |
| 1778002943 | 15° C | 84% | 1001.4 hPa | 0 mm | 0.45 m/s, 124° | - | - |
| 1778002674 | 15° C | 84% | 1001.3 hPa | 0 mm | 0.89 m/s, 116° | - | - |
| 1778002417 | 15° C | 84% | 1001.4 hPa | 0 mm | 1.34 m/s, 115° | - | - |
| 1778001983 | 15.56° C | 84% | 1001.2 hPa | 0 mm | 1.34 m/s, 138° | - | - |
| 1778001811 | 15.56° C | 84% | 1001.1 hPa | 0 mm | 0.89 m/s, 132° | - | - |
| 1778001211 | 15.56° C | 84% | 1001.3 hPa | 0 mm | 1.79 m/s, 138° | - | - |
| 1778000611 | 15.56° C | 83% | 1001.5 hPa | 0 mm | 0.45 m/s, 132° | - | - |
| 1778000011 | 15.56° C | 83% | 1001.5 hPa | 0 mm | 0.45 m/s, 126° | - | - |
| 1777999412 | 15.56° C | 83% | 1001.5 hPa | 0 mm | 1.34 m/s, 143° | - | - |
| 1777998812 | 15.56° C | 83% | 1001.5 hPa | 0 mm | 1.34 m/s, 132° | - | - |
| 1777998211 | 15.56° C | 83% | 1001.5 hPa | 0 mm | 0.89 m/s, 135° | - | - |
| 1777997612 | 15.56° C | 83% | 1001.5 hPa | 0 mm | 0.89 m/s, 127° | - | - |
| 1777997012 | 15.56° C | 83% | 1001.5 hPa | 0 mm | 1.34 m/s, 124° | - | - |
| 1777996411 | 15.56° C | 84% | 1001.6 hPa | 0 mm | 0.89 m/s, 145° | - | - |
| 1777995811 | 15.56° C | 84% | 1001.7 hPa | 0 mm | 0 m/s | - | - |
| 1777995212 | 15.56° C | 84% | 1001.7 hPa | 0 mm | 1.34 m/s, 128° | - | - |
| 1777994611 | 15.56° C | 83% | 1001.8 hPa | 0 mm | 0.89 m/s, 120° | - | - |
| 1777994012 | 15.56° C | 83% | 1001.7 hPa | 0 mm | 0.89 m/s, 107° | - | - |
| 1777993411 | 15.56° C | 83% | 1001.7 hPa | 0 mm | 0.89 m/s, 145° | - | - |
| 1777992812 | 15.56° C | 83% | 1001.8 hPa | 0 mm | 0.89 m/s, 143° | - | - |
* Rain latest hour (hover to see other rain measurements)
** Current wind speed in m/s (hover to see current wind gust speed)